[TLELIST] Archives

 

[list_settings.list_name] Current TLEs

September 7th 2014 PDT

HST 1 20580U 90037B 14250.12700694 .00001873 00000-0 11463-3 0 1051 2 20580 028.4699 218.3780 0003204 081.3854 008.8857 15.05693347137079 ISS (ZARYA) 1 25544U 98067A 14250.47308481 .00012591 00000-0 22582-3 0 415 2 25544 051.6457 051.7424 0003657 085.3516 309.2270 15.50303384904099 CXO 1 25867U 99040B 14252.52851459 .00000328 00000-0 00000+0 0 693 2 25867 076.9823 317.3466 7987875 273.1307 000.6050 00.37802790 12234 ____________________________________________________________________ These 2-Line ...Continue Reading

[list_settings.list_name] Current TLEs

September 6th 2014 PDT

HST 1 20580U 90037B 14248.41125505 .00001661 00000-0 10032-3 0 1047 2 20580 028.4698 229.6615 0003281 063.1510 068.5551 15.05685195136820 ISS (ZARYA) 1 25544U 98067A 14249.31744610 .00011796 00000-0 21233-3 0 355 2 25544 051.6459 057.4686 0003663 086.7098 333.9413 15.50270266903916 CXO 1 25867U 99040B 14249.88256374 .00000527 00000-0 00000+0 0 683 2 25867 076.9825 317.4376 7996224 273.1701 000.4409 00.37804312 12220 ____________________________________________________________________ These 2-Line ...Continue Reading

[list_settings.list_name] Current TLEs

September 5th 2014 PDT

HST 1 20580U 90037B 14247.35494132 .00001454 00000-0 86396-4 0 1030 2 20580 028.4698 236.6082 0003266 052.9262 101.7691 15.05680496136665 ISS (ZARYA) 1 25544U 98067A 14248.42144495 .00010981 00000-0 19839-3 0 298 2 25544 051.6460 061.9077 0003661 081.5518 015.2698 15.50245529903773 CXO 1 25867U 99040B 14249.88256374 .00000527 00000-0 00000+0 0 683 2 25867 076.9825 317.4376 7996224 273.1701 000.4409 00.37804312 12220 ____________________________________________________________________ These 2-Line ...Continue Reading

[list_settings.list_name] Current TLEs

September 4th 2014 PDT

HST 1 20580U 90037B 14247.35494132 .00001454 00000-0 86396-4 0 1030 2 20580 028.4698 236.6082 0003266 052.9262 101.7691 15.05680496136665 ISS (ZARYA) 1 25544U 98067A 14247.45255980 .00010225 00000-0 18546-3 0 208 2 25544 051.6463 066.7089 0003789 076.9221 009.1195 15.50220084903629 CXO 1 25867U 99040B 14249.88256374 .00000527 00000-0 00000+0 0 683 2 25867 076.9825 317.4376 7996224 273.1701 000.4409 00.37804312 12220 ____________________________________________________________________ These 2-Line ...Continue Reading

[list_settings.list_name] Current TLEs

September 3rd 2014 PDT

HST 1 20580U 90037B 14246.14703690 .00001305 00000-0 76349-4 0 1029 2 20580 028.4698 244.5519 0003360 039.6774 034.7077 15.05677101136474 ISS (ZARYA) 1 25544U 98067A 14246.41930814 .00010606 00000-0 19221-3 0 135 2 25544 051.6458 071.8293 0003689 077.2738 358.6447 15.50199593903467 CXO 1 25867U 99040B 14247.23777999 .00000621 00000-0 00000+0 0 675 2 25867 076.9775 317.5600 8002661 273.1773 000.5087 00.37803415 12213 ____________________________________________________________________ These 2-Line ...Continue Reading

[list_settings.list_name] Current TLEs

September 2nd 2014 PDT

HST 1 20580U 90037B 14244.66406250 .00001531 00000-0 91579-4 0 1018 2 20580 028.4697 254.3045 0003338 024.9278 275.2269 15.05672793136250 ISS (ZARYA) 1 25544U 98067A 14245.13470029 .00009883 00000-0 17984-3 0 83 2 25544 051.6461 078.1961 0003662 072.7758 029.4412 15.50171480903264 CXO 1 25867U 99040B 14247.23777999 .00000621 00000-0 00000+0 0 675 2 25867 076.9775 317.5600 8002661 273.1773 000.5087 00.37803415 12213 ____________________________________________________________________ These 2-Line ...Continue Reading

[list_settings.list_name] Current TLEs

September 1st 2014 PDT

HST 1 20580U 90037B 14243.44458582 .00001887 00000-0 11570-3 0 1003 2 20580 028.4700 262.3300 0003215 015.1512 141.8807 15.05667478136075 ISS (ZARYA) 1 25544U 98067A 14244.41941797 .00011937 00000-0 21560-3 0 31 2 25544 051.6465 081.7406 0003575 069.2073 358.6800 15.50159679903158 CXO 1 25867U 99040B 14244.59213999 .00000560 00000-0 00000+0 0 667 2 25867 076.9770 317.6655 8006168 273.1855 000.4636 00.37802559 12202 ____________________________________________________________________ These 2-Line ...Continue Reading

[list_settings.list_name] Current TLEs

August 31st 2014 PDT

HST 1 20580U 90037B 14242.16668659 .00002062 00000-0 12753-3 0 996 2 20580 028.4702 270.7333 0003115 002.5308 054.1015 15.05662658135877 ISS (ZARYA) 1 25544U 98067A 14243.45549542 .00012475 00000-0 22510-3 0 9983 2 25544 051.6459 086.5171 0003726 065.9220 019.2219 15.50138645903006 CXO 1 25867U 99040B 14244.59213999 .00000560 00000-0 00000+0 0 667 2 25867 076.9770 317.6655 8006168 273.1855 000.4636 00.37802559 12202 ____________________________________________________________________ These 2-Line ...Continue Reading

[list_settings.list_name] Current TLEs

August 30th 2014 PDT

HST 1 20580U 90037B 14242.16668659 .00002062 00000-0 12753-3 0 996 2 20580 028.4702 270.7333 0003115 002.5308 054.1015 15.05662658135877 ISS (ZARYA) 1 25544U 98067A 14242.48690221 .00014259 00000-0 25627-3 0 9946 2 25544 051.6447 091.3180 0003578 065.4697 010.9290 15.50119480902850 CXO 1 25867U 99040B 14244.59213999 .00000560 00000-0 00000+0 0 667 2 25867 076.9770 317.6655 8006168 273.1855 000.4636 00.37802559 12202 ____________________________________________________________________ These 2-Line ...Continue Reading

[list_settings.list_name] Current TLEs

August 29th 2014 PDT

HST 1 20580U 90037B 14241.16199280 .00001655 00000-0 10000-3 0 972 2 20580 028.4696 277.3469 0003009 347.0576 012.9918 15.05659759135724 ISS (ZARYA) 1 25544U 98067A 14241.44173228 .00000008 00000-0 14597-6 0 9870 2 25544 051.6445 096.5021 0003282 058.0977 302.0856 15.50091784902691 CXO 1 25867U 99040B 14239.36799653 .00000000 00000-0 10000-3 0 633 2 25867 076.9660 317.8830 8007459 273.2670 009.2739 00.37811804 12199 ____________________________________________________________________ These 2-Line ...Continue Reading
  • This mailing list is a public mailing list - anyone may join or leave, at any time.
  • This mailing list is announce-only.

International Space Station (ISS) / Hubble Space Telescope (HST) / Chandra X-Ray Observatory Orbital Data via EMAIL

Privacy Policy:

Private list